Location: Grasslands National Park East Block
(49.0708°N, 106.5295°W)
Time: 11:53:48
(UTC-06:00)

Vanguard 2 - All Passes

Search period start: 15 September 2019 00:00
Search period end: 25 September 2019 00:00
Orbit: 554 x 2937 km, 32.9° (Epoch: 15 September)

Date Brightness Start Highest point End Pass type
(mag) Time Alt. Az. Time Alt. Az. Time Alt. Az.
15 Sep - 05:51:33 10° SSW 05:56:21 16° S 06:00:10 10° SE visible
15 Sep - 08:00:18 10° SW 08:04:06 16° S 08:07:11 10° SSE daylight
16 Sep - 04:02:19 10° S 04:05:43 12° SSE 04:08:42 10° SE visible
16 Sep - 06:08:21 10° SW 06:14:05 19° S 06:18:24 10° SE visible
16 Sep - 08:18:02 10° SW 08:21:42 15° SSW 08:24:41 10° SSE daylight
17 Sep - 04:17:29 10° SSW 04:23:28 16° SSE 04:28:12 10° SE visible
17 Sep - 06:25:33 10° SW 06:31:47 21° S 06:36:22 10° SE daylight
17 Sep - 08:36:03 10° SW 08:39:15 14° SSW 08:41:57 10° SSE daylight
18 Sep - 04:33:46 10° SSW 04:41:13 20° SSE 04:46:46 10° SE visible
18 Sep - 06:43:00 10° SW 06:49:28 22° S 06:54:08 10° SE daylight
18 Sep - 08:54:28 10° SW 08:56:45 12° SSW 08:58:45 10° S daylight
19 Sep - 02:44:09 10° S 02:50:06 14° SSE 02:55:05 10° SE visible
19 Sep - 04:50:33 10° SW 04:58:58 23° S 05:04:58 10° ESE visible
19 Sep - 07:00:39 10° WSW 07:07:06 22° SSW 07:11:45 10° SE daylight
20 Sep - 02:59:28 10° SSW 03:07:49 19° SSE 03:14:19 10° ESE visible
20 Sep - 05:07:42 10° SW 05:16:41 26° S 05:22:56 10° SE visible
20 Sep - 07:18:28 10° WSW 07:24:41 21° SSW 07:29:13 10° SSE daylight
21 Sep - 01:13:45 10° SSE 01:16:21 11° SSE 01:18:47 10° SE visible
21 Sep - 03:15:40 10° SSW 03:25:33 23° SSE 03:32:51 10° ESE visible
21 Sep - 05:25:05 10° SW 05:34:24 28° S 05:40:44 10° SE visible
21 Sep - 07:36:29 10° WSW 07:42:11 19° SSW 07:46:28 10° SSE daylight
22 Sep - 01:26:23 10° S 01:33:58 15° SSE 01:40:25 10° ESE visible
22 Sep - 03:32:22 10° SW 03:43:17 27° SSE 03:51:04 10° ESE visible
22 Sep - 05:42:40 10° WSW 05:52:04 29° S 05:58:26 10° SE visible
22 Sep - 07:54:45 10° WSW 07:59:38 16° SSW 08:03:27 10° S daylight
23 Sep - 01:41:33 10° SSW 01:51:37 20° SSE 01:59:42 10° ESE visible
23 Sep - 03:49:24 10° SW 04:01:01 30° S 04:09:04 10° ESE visible
23 Sep - 06:00:24 10° WSW 06:09:41 28° SSW 06:15:59 10° SE visible
23 Sep - 08:13:27 10° WSW 08:16:59 13° SW 08:19:56 10° S daylight
23 Sep - 23:57:36 10° SSE 23:59:54 10° SE 00:02:08 10° SE night (unlit)
24 Sep - 01:57:35 10° SSW 02:09:17 25° SSE 02:18:19 10° ESE visible
24 Sep - 04:06:43 10° SW 04:18:44 33° S 04:26:55 10° ESE visible
24 Sep - 06:18:17 10° WSW 06:27:15 27° SSW 06:33:24 10° SE visible
